User: anonymous   Login
Location: Chippewa Lake
(41.0698°N, 81.9010°W)
Time: 18:32:13
(UTC+00:00)
Language:

deb Kosmos-886 - Orbit

View from above orbital plane
View from above orbital plane
View from above satellite
View from above satellite

Ground track
Ground track

The orbit data is extracted from the following two-line orbital elements,

1 09651U 76126H   21340.84882328  .00000501  00000-0  20923-3 0  9991
2 09651  65.7940 124.2644 0824556 125.2658 242.8396 13.23753701132389
Epoch (UTC): 06 December 2021 20:22:18
Eccentricity: 0.0824556
inclination: 65.7940°
perigee height: 548 km
apogee height: 1793 km
right ascension of ascending node: 124.2644°
argument of perigee: 125.2658°
revolutions per day: 13.23753701
mean anomaly at epoch: 242.8396°
orbit number at epoch: 13238

The dashed part of the orbit path shows where the satellite is in the earth's shadow,  

DLR